Sign In / Sign Up
 
 
Long Long Journey Regatta. Leg 94. 26/10 - 01/11



Race Date (UTC) # I place II place III place Track
Race1059 2020-10-28 19:13:46 5 frisu WeRThWrld getnair
Race1058 2020-10-28 19:11:33 8 between the sheets ge614 yuppydu
Race1057 2020-10-28 19:09:55 5 Apollo SMOKIFY hawk
Race1056 2020-10-28 19:07:47 7 federico frisu captain pugwash
Race1055 2020-10-28 19:02:42 8 allter corsicanbastard Chipao
Race1054 2020-10-28 18:58:31 8 federico Y.C. Tempio Pausania Sardynia
Race1053 2020-10-28 18:56:29 5 MAGJA Chipao bolina74
Race1052 2020-10-28 18:54:07 8 Apollo captain pugwash 270
Race1051 2020-10-28 18:51:48 2 SMOKIFY Y.C. Tempio Pausania
Race1050 2020-10-28 18:50:01 7 bolina74 HuoDo MAGJA
Race1049 2020-10-28 18:47:07 7 captain pugwash Sardynia Apollo
Race1048 2020-10-28 18:46:25 3 between the sheets Y.C. Tempio Pausania captain pugwash
Race1047 2020-10-28 18:42:53 8 frisu FRAM Aquaphobia
Race1046 2020-10-28 18:41:48 8 LOU VIRUS HuoDo Apollo
Race1045 2020-10-28 18:37:23 8 frida antifa 3.56.90 Windwillow ge614
Race1044 2020-10-28 18:36:40 6 yuppydu Senator Alex
Race1043 2020-10-28 18:32:03 8 HuoDo Apollo JJ
Race1042 2020-10-28 18:29:44 8 FRAM star6546 No respect.
Race1041 2020-10-28 18:28:25 3 No respect. BBMP Boat Beerymoar
Race1040 2020-10-28 18:27:32 2 BUL 136628 Senator
Race1039 2020-10-28 18:24:45 6 ITA 77 star6546 FRAM
Race1038 2020-10-28 18:23:22 8 POL 77 Rider56 yuppydu
Race1037 2020-10-28 18:21:36 2 No respect. BUL 136628
Race1036 2020-10-28 18:18:49 8 Ёжик FRAM ITA 77
Race1035 2020-10-28 18:16:49 5 POL 77 Norman Rider56
Race1034 2020-10-28 18:14:24 8 No respect. yuppydu aldette
Race1033 2020-10-28 18:12:19 8 revenge Ёжик Trieste
Race1032 2020-10-28 18:08:23 6 nb POL 77 Suyai
Race1031 2020-10-28 18:05:41 8 Senator gangbang yuppydu
Race1030 2020-10-28 18:02:08 6 revenge Senecio nb
Race1029 2020-10-28 17:59:28 8 rafiki dark side of the mumm alba3os
Race1028 2020-10-28 17:57:56 2 Alcor1183 AquA
Race1027 2020-10-28 17:55:24 8 Bonfi spector Suyai
Race1026 2020-10-28 17:53:15 8 rafiki lucky2 dark side of the mumm
Race1025 2020-10-28 17:52:04 2 AquA getnair
Race1024 2020-10-28 17:49:51 8 ejs Bonfi yuppydu
Race1023 2020-10-28 17:49:32 8 Apollo Jumpin' Babe Odin
Race1022 2020-10-28 17:44:16 6 aldette ciccispaziani 03:57:70 lucky2
Race1021 2020-10-28 17:42:11 8 Jumpin' Babe Odin rafiki
Race1020 2020-10-28 17:39:55 4 alba3os lucky2 Margot
Race1019 2020-10-28 17:37:39 5 Jumpin' Babe DeCoccio Just A Hare
Race1018 2020-10-28 17:35:04 8 Start100 WeRThWrld Мираж
Race1017 2020-10-28 17:32:47 8 Margot Odin yuppydu
Race1016 2020-10-28 17:30:05 8 WeRThWrld Ужур Мираж
Race1015 2020-10-28 17:27:15 7 lucky2 frisu yuppydu
Race1014 2020-10-28 17:24:53 2 WeRThWrld Ipso
Race1013 2020-10-28 17:24:12 3 piro lita federico Ipso
Race1012 2020-10-28 17:23:10 8 MAX Jumpin' Babe Ужур
Race1011 2020-10-28 17:19:38 8 captain pugwash RAYO yuppydu
Race1010 2020-10-28 17:17:45 4 piro lita Farr federico
Race1009 2020-10-28 17:15:59 8 Norman Yes We nb
Race1008 2020-10-28 17:13:50 8 MAX RAYO lucky2
Race1007 2020-10-28 17:12:52 2 yuppydu Joe Joe
Race1006 2020-10-28 17:10:45 2 CZE284 Farr
Race1005 2020-10-28 17:07:57 8 captain pugwash RAYO Ipso
Race1004 2020-10-28 17:05:24 2 ONO Ipso
Race1003 2020-10-28 17:03:49 8 piro lita MAX Ужур
Race1002 2020-10-28 17:00:15 8 RAYO Margot captain pugwash
Race1001 2020-10-28 16:58:50 8 HuoDo piro lita MAX
Race1000 2020-10-28 16:57:17 2 Ipso ONO
Race999 2020-10-28 16:55:26 8 JLS_1 RAYO max53
Race998 2020-10-28 16:53:50 5 Farr platu 25 RK1
Race997 2020-10-28 16:51:08 8 HuoDo KO ITA Odin
Race996 2020-10-28 16:48:59 8 MAX Rantott H Kona two
Race995 2020-10-28 16:45:43 3 Moro di Venezia Speedy G platu 25
Race994 2020-10-28 16:44:49 4 JLS_1 Marakesh express. Kona two
Race993 2020-10-28 16:42:31 8 MAX MAGJA Withe
Race992 2020-10-28 16:40:03 5 Moro di Venezia Rantott H Kahuna
Race991 2020-10-28 16:37:44 5 Kona two JLS_1 Marakesh express.
Race990 2020-10-28 16:35:53 8 Odin MAX Mana
Race989 2020-10-28 16:34:43 2 zénó tinnove
Race988 2020-10-28 16:31:38 4 Mana Tomtom AquA
Race987 2020-10-28 16:28:55 4 iTa33 zénó Moro di Venezia
Race986 2020-10-28 16:26:43 2 zénó Moro di Venezia
Race985 2020-10-28 16:24:50 4 Mana I.G.N RK1
Race984 2020-10-28 16:23:06 5 iTa33 HuoDo Kiss the Sphinx
Race983 2020-10-28 16:19:47 7 gangbang CZE284 Odin
Race982 2020-10-28 16:18:17 4 50% Invero Mi barco
Race981 2020-10-28 16:16:01 8 HuoDo iTa33 Kiss the Sphinx
Race980 2020-10-28 16:13:34 2 VoteTrump mikycambie
Race979 2020-10-28 16:12:43 2 Mi barco Salitre
Race978 2020-10-28 16:12:07 2 no with you Tomtom
Race977 2020-10-28 16:09:04 4 A$$ VoteTrump mikycambie
Race976 2020-10-28 16:07:37 3 Udolino A$$ Just A Hare
Race975 2020-10-28 16:05:57 3 no with you GoSlow Just A Hare
Race974 2020-10-28 16:03:28 3 CZE284 Mi barco getnair
Race973 2020-10-28 15:59:53 2 SI113 RK1
Race972 2020-10-28 15:57:03 3 hawk Jeeeeaaaaaa gangbang
Race971 2020-10-28 15:52:04 2 NN Patel 470
Race970 2020-10-28 15:50:20 3 Jeeeeaaaaaa hawk Boh!
Race969 2020-10-28 15:45:13 6 2 Red Pepper Rus64
Race968 2020-10-28 15:43:22 8 Marakesh express. corsicanbastard LOU VIRUS
Race967 2020-10-28 15:42:01 2 A$$ nb
Race966 2020-10-28 15:40:15 2 RK1 Marakesh express.
Race965 2020-10-28 15:37:37 8 LOU VIRUS PESCARA 1 I.G.N
Race964 2020-10-28 15:35:51 2 Boh! Tomtom
Race963 2020-10-28 15:34:26 2 gangbang Tomtom
Race962 2020-10-28 15:33:42 2 malina 007
Race961 2020-10-28 15:29:50 8 PESCARA 1 Ведя Киев Jeeeeaaaaaa
Race960 2020-10-28 15:25:24 7 corsicanbastard malina hawk